FW7254 Weather Reports


Display with metric or nautical units.
time (UTC)temp
F
wind
direction
speed
MPH
gust
MPH
rain 1hr
in
rain 24hr
in
rain mn
in
humidity
%
barometer
mb
20260509003319 69 360 0.0 0.0 0.00 0.00 0.00 36 1009.8
20260509001826 69 360 0.0 0.0 0.00 0.00 0.00 38 1009.7
20260509000333 69 360 0.0 0.0 0.00 0.00 0.00 38 1009.2
20260508234820 69 360 0.0 0.0 0.00 0.00 0.00 42 1009.2
20260508233325 68 360 0.0 0.0 0.00 0.00 0.00 39 1008.9
20260508231832 67 360 0.0 0.0 0.00 0.00 0.00 42 1008.8
20260508230339 67 360 0.0 0.0 0.00 0.00 0.00 42 1008.5
20260508224826 66 360 0.0 0.0 0.00 0.00 0.00 44 1008.1
20260508223330 65 360 0.0 0.0 0.00 0.00 0.00 44 1008.0
20260508221839 63 360 0.0 0.0 0.00 0.00 0.00 46 1007.6
20260508220315 62 360 0.0 0.0 0.00 0.00 0.00 45 1007.6
20260508214843 61 360 0.0 0.0 0.00 0.00 0.00 56 1007.3
20260508213328 61 360 0.0 0.0 0.00 0.00 0.00 55 1007.0
20260508211832 61 360 0.0 0.0 0.00 0.00 0.00 56 1006.6
20260508210337 61 360 0.0 0.0 0.00 0.00 0.00 58 1006.4
20260508204846 61 360 0.0 0.0 0.00 0.00 0.00 62 1006.1
20260508203330 61 360 0.0 0.0 0.00 0.00 0.00 59 1005.8
20260508201815 61 360 0.0 0.0 0.00 0.00 0.00 57 1005.6
20260508200321 61 360 0.0 0.0 0.00 0.00 0.00 55 1005.4
20260508194848 62 360 0.0 0.0 0.00 0.00 0.00 53 1004.8
20260508193326 62 360 0.0 0.0 0.00 0.00 0.00 52 1004.6
20260508191816 62 360 0.0 0.0 0.00 0.00 0.00 51 1004.6
20260508190314 62 360 0.0 0.0 0.00 0.00 0.00 49 1004.3
20260508184821 63 360 0.0 0.0 0.00 0.00 0.00 52 1004.1
20260508183327 63 360 0.0 0.0 0.00 0.00 0.00 52 1003.8
20260508181813 63 360 0.0 0.0 0.00 0.00 0.00 53 1003.9
20260508180312 64 360 1.0 0.0 0.00 0.00 0.00 52 1003.7
20260508174821 64 355 1.0 0.0 0.00 0.00 0.00 53 1003.6
20260508173347 65 360 2.0 0.0 0.00 0.00 0.00 53 1003.1
20260508171839 65 355 1.0 0.0 0.00 0.00 0.00 54 1003.2
20260508170316 66 355 2.0 0.0 0.00 0.00 0.00 55 1003.1
20260508164822 66 350 0.0 0.0 0.00 0.00 0.00 58 1003.0
20260508163312 66 355 1.0 0.0 0.00 0.00 0.00 58 1002.9
20260508161813 67 355 0.0 0.0 0.00 0.00 0.00 57 1002.8
20260508160323 67 355 0.0 0.0 0.00 0.00 0.00 58 1002.7
20260508154824 67 355 1.0 0.0 0.00 0.00 0.00 57 1003.0
20260508153335 67 346 1.0 0.0 0.00 0.00 0.00 57 1002.8
20260508151834 68 338 0.0 0.0 0.00 0.00 0.00 60 1002.8
20260508150318 69 291 1.0 0.0 0.00 0.00 0.00 63 1002.8
20260508144821 69 272 1.0 0.0 0.00 0.00 0.00 69 1002.6
20260508143357 69 271 1.0 0.0 0.00 0.00 0.00 71 1002.3
20260508141814 69 271 0.0 0.0 0.00 0.00 0.00 70 1001.7
20260508140316 70 270 1.0 0.0 0.00 0.00 0.00 70 1001.4
20260508134826 70 273 2.0 0.0 0.00 0.00 0.00 70 1001.1
20260508133330 70 255 2.0 0.0 0.00 0.00 0.00 70 1001.0
20260508131816 70 273 2.0 0.0 0.00 0.00 0.00 70 1001.0
20260508130319 70 209 3.0 0.0 0.00 0.00 0.00 70 1000.7
20260508124828 70 279 4.0 0.0 0.00 0.00 0.00 70 1000.6
20260508123312 70 254 3.0 0.0 0.00 0.00 0.00 71 1000.6
20260508121819 70 139 2.0 0.0 0.00 0.00 0.00 73 1000.8
20260508120345 70 114 1.0 0.0 0.00 0.00 0.00 74 1001.1
20260508114813 70 202 1.0 0.0 0.00 0.00 0.00 74 1001.1
20260508113317 70 230 2.0 0.0 0.00 0.00 0.00 74 1001.0
20260508111823 71 219 1.0 0.0 0.00 0.00 0.00 75 1000.8
20260508110313 71 240 2.0 0.0 0.00 0.00 0.00 76 1000.8
20260508104821 71 181 2.0 0.0 0.00 0.00 0.00 77 1000.5
20260508103348 71 102 1.0 0.0 0.00 0.00 0.00 78 1000.5
20260508101836 71 246 1.0 0.0 0.00 0.00 0.00 77 1000.7
20260508100313 72 134 1.0 0.0 0.00 0.00 0.00 75 1000.6
20260508094848 72 250 0.0 0.0 0.00 0.00 0.00 75 1000.8
20260508093327 72 278 1.0 0.0 0.00 0.00 0.00 74 1000.8
20260508091815 73 146 0.0 0.0 0.00 0.00 0.00 73 1000.6
20260508090324 73 130 1.0 0.0 0.00 0.00 0.00 73 1000.8
20260508084832 73 234 1.0 0.0 0.00 0.00 0.00 73 1000.8
20260508083339 73 123 1.0 0.0 0.00 0.00 0.00 72 1000.3
20260508081822 73 271 1.0 0.0 0.00 0.00 0.00 74 1000.5
20260508080336 73 119 0.0 0.0 0.00 0.00 0.00 75 1000.9
20260508074816 73 115 0.0 0.0 0.00 0.00 0.00 74 1001.3
20260508073325 74 176 1.0 0.0 0.00 0.00 0.00 73 1001.4
20260508071837 74 134 1.0 0.0 0.00 0.00 0.00 73 1001.4
20260508070316 74 103 1.0 0.0 0.00 0.00 0.00 73 1001.3
20260508064830 75 138 1.0 0.0 0.00 0.00 0.00 73 1001.5
20260508063334 75 89 1.0 0.0 0.00 0.00 0.00 72 1001.4
20260508061814 76 113 1.0 0.0 0.00 0.00 0.00 72 1001.6
20260508060321 76 137 0.0 0.0 0.00 0.00 0.00 71 1001.5
20260508054824 76 153 0.0 0.0 0.00 0.00 0.00 74 1001.9
20260508053332 75 131 0.0 0.0 0.00 0.00 0.00 75 1001.8
20260508051817 75 128 0.0 0.0 0.00 0.00 0.00 75 1002.5
20260508050314 75 118 0.0 0.0 0.00 0.00 0.00 75 1002.8
20260508044822 75 119 1.0 0.0 0.00 0.00 0.00 76 1002.6
20260508043327 75 112 1.0 0.0 0.00 0.00 0.00 76 1002.9
20260508041816 75 137 0.0 0.0 0.00 0.00 0.00 74 1003.4
20260508040316 75 197 0.0 0.0 0.00 0.00 0.00 74 1003.7
20260508034823 75 146 0.0 0.0 0.00 0.00 0.00 74 1003.7
20260508033326 74 165 0.0 0.0 0.00 0.00 0.00 77 1003.9
20260508031834 74 225 0.0 0.0 0.00 0.00 0.00 77 1004.2
20260508030337 74 98 0.0 0.0 0.00 0.00 0.00 76 1004.5
20260508024844 74 195 0.0 0.0 0.00 0.00 0.00 76 1004.7
20260508023328 75 115 1.0 0.0 0.00 0.00 0.00 75 1004.9
20260508021834 75 120 1.0 0.0 0.00 0.00 0.00 74 1005.1
20260508020319 76 94 1.0 0.0 0.00 0.00 0.00 73 1005.2
20260508014826 76 110 0.0 0.0 0.00 0.00 0.00 72 1005.0
20260508013326 76 250 0.0 0.0 0.00 0.00 0.00 72 1004.9
20260508011839 76 114 0.0 0.0 0.00 0.00 0.00 72 1005.3
20260508010355 76 114 1.0 0.0 0.00 0.00 0.00 71 1004.9
20260508004816 76 196 0.0 0.0 0.00 0.00 0.00 72 1005.5